• In Russia
  • List of Countries
  • For 7 days
  • Water Temperature
  • Satellite Maps
  • Weather Map
  • Weather Widgets
  • user-avatar
    Login

    Hourly Weather Idzhewan

    Today, 11 December, Monday

    Time Temperature Precipitation Wind Pressure Humidity
    00:00 +1°C° 0 mm 3 mps 696 mmHg 55%
    01:00 +1°C° 0 mm 3 mps 696 mmHg 55%
    02:00 +1°C° 0 mm 3 mps 696 mmHg 55%
    03:00 +1°C° 0 mm 3 mps 696 mmHg 56%
    04:00 +1°C° 0 mm 3 mps 696 mmHg 56%
    05:00 +1°C° 0 mm 3 mps 696 mmHg 56%
    06:00 +1°C° 0 mm 3 mps 696 mmHg 56%
    07:00 +2°C° 0 mm 3 mps 696 mmHg 54%
    08:00 +3°C° 0 mm 3 mps 697 mmHg 53%
    09:00 +4°C° 0 mm 3 mps 696 mmHg 50%
    10:00 +5°C° 0 mm 3 mps 696 mmHg 48%
    11:00 +8°C° 0 mm 3 mps 696 mmHg 45%
    12:00 +9°C° 0 mm 3 mps 696 mmHg 42%
    13:00 +9°C° 0 mm 3 mps 697 mmHg 44%
    14:00 +9°C° 0 mm 3 mps 697 mmHg 46%
    15:00 +9°C° 0 mm 3 mps 697 mmHg 48%
    16:00 +7°C° 0 mm 3 mps 698 mmHg 52%
    17:00 +5°C° 0 mm 3 mps 698 mmHg 56%
    18:00 +3°C° 0 mm 3 mps 699 mmHg 59%
    19:00 +3°C° 0 mm 3 mps 699 mmHg 59%
    20:00 +4°C° 0 mm 2 mps 699 mmHg 59%
    21:00 +3°C° 0 mm 2 mps 700 mmHg 58%
    22:00 +3°C° 0 mm 2 mps 700 mmHg 58%
    23:00 +3°C° 0 mm 2 mps 700 mmHg 57%

    Tomorrow, 12 December, Tuesday

    Time Temperature Precipitation Wind Pressure Humidity
    00:00 +3°C° 0 mm 2 mps 700 mmHg 57%
    01:00 +3°C° 0 mm 2 mps 700 mmHg 57%
    02:00 +3°C° 0 mm 2 mps 701 mmHg 57%
    03:00 +4°C° 0 mm 1 mps 701 mmHg 57%
    04:00 +4°C° 0 mm 1 mps 701 mmHg 57%
    05:00 +4°C° 0 mm 1 mps 701 mmHg 58%
    06:00 +3°C° 0 mm 1 mps 701 mmHg 58%
    07:00 +4°C° 0 mm 1 mps 701 mmHg 56%
    08:00 +5°C° 0 mm 1 mps 701 mmHg 55%
    09:00 +6°C° 0 mm 1 mps 701 mmHg 53%
    10:00 +7°C° 0 mm 1 mps 700 mmHg 51%
    11:00 +8°C° 0 mm 1 mps 700 mmHg 50%
    12:00 +10°C° 0 mm 1 mps 700 mmHg 48%
    13:00 +10°C° 0 mm 1 mps 699 mmHg 49%
    14:00 +10°C° 0 mm 1 mps 699 mmHg 50%
    15:00 +10°C° 0 mm 1 mps 699 mmHg 51%
    16:00 +9°C° 0 mm 1 mps 699 mmHg 53%
    17:00 +8°C° 0 mm 1 mps 699 mmHg 56%
    18:00 +6°C° 0 mm 1 mps 699 mmHg 58%
    19:00 +6°C° 0 mm 1 mps 699 mmHg 58%
    20:00 +6°C° 0 mm 1 mps 699 mmHg 57%
    21:00 +6°C° 0 mm 1 mps 699 mmHg 56%
    22:00 +6°C° 0 mm 1 mps 699 mmHg 56%
    23:00 +6°C° 0 mm 1 mps 699 mmHg 56%

    Day after tomorrow, 13 December, Wednesday

    Time Temperature Precipitation Wind Pressure Humidity
    00:00 +5°C° 0 mm 1 mps 699 mmHg 56%
    01:00 +5°C° 0 mm 1 mps 699 mmHg 55%
    02:00 +5°C° 0 mm 1 mps 699 mmHg 55%
    03:00 +5°C° 0 mm 1 mps 699 mmHg 55%
    04:00 +5°C° 0 mm 1 mps 699 mmHg 54%
    05:00 +5°C° 0 mm 1 mps 698 mmHg 54%
    06:00 +5°C° 0 mm 1 mps 698 mmHg 53%
    07:00 +6°C° 0 mm 1 mps 698 mmHg 51%
    08:00 +6°C° 0 mm 1 mps 699 mmHg 49%
    09:00 +7°C° 0 mm 1 mps 699 mmHg 48%
    10:00 +8°C° 0 mm 1 mps 698 mmHg 46%
    11:00 +9°C° 0 mm 1 mps 698 mmHg 45%
    12:00 +11°C° 0 mm 1 mps 698 mmHg 44%
    13:00 +10°C° 0 mm 1 mps 697 mmHg 46%
    14:00 +10°C° 0 mm 1 mps 697 mmHg 48%
    15:00 +10°C° 0 mm 1 mps 697 mmHg 50%
    16:00 +8°C° 0 mm 1 mps 697 mmHg 55%
    17:00 +7°C° 0 mm 1 mps 697 mmHg 60%
    18:00 +5°C° 0 mm 0 mps 697 mmHg 64%
    19:00 +4°C° 0 mm 0 mps 697 mmHg 65%
    20:00 +4°C° 0 mm 0 mps 697 mmHg 66%
    21:00 +4°C° 0 mm 0 mps 697 mmHg 67%
    22:00 +4°C° 0 mm 0 mps 697 mmHg 69%
    23:00 +4°C° 0 mm 0 mps 697 mmHg 70%

    14 December, Thursday

    Time Temperature Precipitation Wind Pressure Humidity
    00:00 +3°C° 0 mm 0 mps 697 mmHg 71%
    01:00 +3°C° 0 mm 0 mps 697 mmHg 73%
    02:00 +3°C° 0 mm 0 mps 697 mmHg 74%
    03:00 +3°C° 0 mm 0 mps 696 mmHg 75%
    04:00 +3°C° 0 mm 0 mps 696 mmHg 75%
    05:00 +2°C° 0 mm 0 mps 696 mmHg 76%
    06:00 +2°C° 0 mm 0 mps 696 mmHg 76%
    07:00 +3°C° 0 mm 0 mps 696 mmHg 72%
    08:00 +4°C° 0 mm 0 mps 697 mmHg 69%
    09:00 +5°C° 0 mm 0 mps 697 mmHg 65%
    10:00 +7°C° 0 mm 1 mps 696 mmHg 62%
    11:00 +8°C° 0 mm 1 mps 696 mmHg 60%
    12:00 +9°C° 0 mm 1 mps 696 mmHg 57%
    13:00 +9°C° 0 mm 1 mps 695 mmHg 59%
    14:00 +8°C° 0 mm 1 mps 695 mmHg 62%
    15:00 +8°C° 0 mm 1 mps 695 mmHg 64%
    16:00 +7°C° 0 mm 1 mps 695 mmHg 70%
    17:00 +6°C° 0 mm 1 mps 695 mmHg 76%
    18:00 +5°C° 0 mm 1 mps 695 mmHg 81%
    19:00 +4°C° 0 mm 1 mps 695 mmHg 81%
    20:00 +4°C° 0 mm 1 mps 695 mmHg 80%
    21:00 +4°C° 0 mm 1 mps 695 mmHg 79%
    22:00 +3°C° 0 mm 0 mps 695 mmHg 79%
    23:00 +3°C° 0 mm 0 mps 695 mmHg 79%

    15 December, Friday

    Time Temperature Precipitation Wind Pressure Humidity
    00:00 +3°C° 0 mm 0 mps 695 mmHg 78%
    01:00 +3°C° 0 mm 0 mps 695 mmHg 78%
    02:00 +2°C° 0 mm 0 mps 695 mmHg 77%
    03:00 +2°C° 0 mm 0 mps 695 mmHg 77%
    04:00 +3°C° 0 mm 1 mps 695 mmHg 75%
    05:00 +3°C° 0 mm 1 mps 695 mmHg 74%
    06:00 +3°C° 0 mm 1 mps 695 mmHg 72%
    07:00 +4°C° 0 mm 1 mps 695 mmHg 68%
    08:00 +5°C° 0 mm 1 mps 695 mmHg 64%
    09:00 +5°C° 0 mm 1 mps 695 mmHg 60%
    10:00 +6°C° 0 mm 1 mps 695 mmHg 57%
    11:00 +8°C° 0 mm 1 mps 695 mmHg 54%
    12:00 +9°C° 0 mm 1 mps 695 mmHg 51%
    13:00 +9°C° 0 mm 1 mps 695 mmHg 52%
    14:00 +9°C° 0 mm 1 mps 695 mmHg 54%
    15:00 +9°C° 0 mm 1 mps 695 mmHg 55%
    16:00 +7°C° 0 mm 1 mps 695 mmHg 59%
    17:00 +6°C° 0 mm 1 mps 695 mmHg 63%
    18:00 +5°C° 0 mm 1 mps 696 mmHg 68%
    19:00 +5°C° 0 mm 1 mps 696 mmHg 66%
    20:00 +5°C° 0 mm 1 mps 696 mmHg 65%
    21:00 +5°C° 0 mm 1 mps 696 mmHg 63%
    22:00 +4°C° 0 mm 1 mps 696 mmHg 63%
    23:00 +4°C° 0 mm 1 mps 697 mmHg 63%

    16 December, Saturday

    Time Temperature Precipitation Wind Pressure Humidity
    00:00 +4°C° 0 mm 1 mps 697 mmHg 63%
    01:00 +3°C° 0 mm 0 mps 697 mmHg 63%
    02:00 +3°C° 0 mm 0 mps 697 mmHg 63%
    03:00 +2°C° 0 mm 0 mps 697 mmHg 63%
    04:00 +2°C° 0 mm 0 mps 697 mmHg 62%
    05:00 +2°C° 0 mm 0 mps 697 mmHg 62%
    06:00 +2°C° 0 mm 0 mps 697 mmHg 62%
    07:00 +3°C° 0 mm 0 mps 697 mmHg 59%
    08:00 +4°C° 0 mm 0 mps 698 mmHg 57%
    09:00 +4°C° 0 mm 0 mps 698 mmHg 54%
    10:00 +6°C° 0 mm 1 mps 698 mmHg 53%
    11:00 +7°C° 0 mm 1 mps 697 mmHg 51%
    12:00 +8°C° 0 mm 1 mps 697 mmHg 50%
    13:00 +8°C° 0 mm 1 mps 697 mmHg 53%
    14:00 +8°C° 0 mm 1 mps 697 mmHg 55%
    15:00 +8°C° 0 mm 1 mps 697 mmHg 58%
    16:00 +7°C° 0 mm 1 mps 697 mmHg 63%
    17:00 +6°C° 0 mm 1 mps 697 mmHg 69%
    18:00 +4°C° 0 mm 1 mps 697 mmHg 74%
    19:00 +4°C° 0 mm 1 mps 698 mmHg 73%
    20:00 +4°C° 0 mm 1 mps 698 mmHg 71%
    21:00 +4°C° 0 mm 1 mps 698 mmHg 70%
    22:00 +4°C° 0 mm 1 mps 698 mmHg 69%
    23:00 +4°C° 0 mm 1 mps 698 mmHg 68%
    Show more